Terug naar catalogus

COSMOS 1854

ActiefMilitairLEO
NORAD 18115·PAYLOAD·🇷🇺 Russia

Gelanceerd Jun 16, 1987 vanaf Plesetsk Cosmodrome

Loading…

Volgende Passages (komende 24 uur)

TLE

VersSource: Space-Track

Epoch: Sep 14, 2026, 08:33 UTC

1 18115U 87051C   26257.35688013 -.00000022  00000-0 -39555-4 0  9990
2 18115  74.0016 226.4025 0015050 290.1321 223.2241 12.48829133789210

Volg COSMOS 1854 in realtime met AllMySat

Download on the App Store